Union Aéronautique de la Côte d'Azur

Union Aéronautique de la Côte d'Azur
UACA
Approuvé A.T.O. EASA – N°FR.ATO.0108

UNION des aéroclubs
Cannes “Ailes d’Azur”, Nice “Côte d’Azur”, Grasse “St Exupery”, ACCA “Francis Séverac”

Un cache-pitot se trouve à bord de chaque avion. Pensez à le mettre en place à la fin de chaque vol !

Avant de quitter l'avion, vérifiez que vous n'emportez pas la checklist

Un vol ne s'entreprend qu'avec un pare-brise parfaitement propre, il en va de votre sécurité, et de celle des autres

Après chaque vol, merci de mettre en place les pares-soleil!


Météo à Cannes:
METAR
LFMD 211500Z AUTO VRB03KT 9999 OVC022 11/09 Q1012 NOSIG =
LFMD 211400Z 2115/2215 VRB05KT 9999 BKN025 BKN060 TEMPO 2118/2203 4000 SHRA BKN010 BKN030TCU BECMG 2206/2208 BKN010 TEMPO 2211/2215 VRB20G30KT 2000 TSRA SCT030CB

TAF
LFMD 211400Z 2115/2215 VRB05KT 9999 BKN025 BKN060 TEMPO 2118/2203 4000 SHRA BKN010 BKN030TCU BECMG 2206/2208 BKN010 TEMPO 2211/2215 VRB20G30KT 2000 TSRA SCT030CB =

SR / SS: 07:02 / 16:25 UTC (LFMD 2021-01-21)